Regional Weather Roundup
Issued by NWS Green Bay, WI

Home | Current Version | Previous Version | Graphics & Text | Print | Product List | Glossary Off
Versions: 1 2 3 4 5 6 7 8 9 10 11 12 13 14 15 16 17 18 19 20 21 22 23 24 25 26 27 28 29 30 31 32 33 34 35 36 37 38 39 40 41 42 43 44 45 46 47 48 49 50

000
ASUS43 KGRB 211459
RWRGRB

NORTH-CENTRAL AND NORTHEAST WISCONSIN REGIONAL WEATHER ROUNDUP
NATIONAL WEATHER SERVICE GREEN BAY WI
900 AM CST SAT JAN 21 2017

WIZ005-009-010>012-018-019-211600-
NORTH CENTRAL WISCONSIN

CITY           SKY/WX    TMP DP  RH WIND       PRES   REMARKS
IRONWOOD       CLOUDY    34  33  96 E7        29.52S
MANITOWISH WTR NOT AVBL
ARBOR VITAE    NOT AVBL
EAGLE RIVER    NOT AVBL
LAND O LAKES   NOT AVBL
RHINELANDER    LGT RAIN  34  34 100 E8        29.51S FOG
PHILLIPS       CLOUDY    33  33 100 E5        29.48F
ANTIGO         NOT AVBL
TOMAHAWK       NOT AVBL
MERRILL        LGT RAIN  34  34 100 E8          N/A  VSB 3/4
$$

WIZ013-073-211600-
NORTHEAST WISCONSIN

CITY           SKY/WX    TMP DP  RH WIND       PRES   REMARKS
IRON MOUNTAIN  FOG       33  31  92 VRB5      29.56S VSB<1/4
MARINETTE      NOT AVBL
$$

WIZ017-030-035>037-045-211600-
CENTRAL WISCONSIN

CITY           SKY/WX    TMP DP  RH WIND       PRES   REMARKS
MEDFORD        NOT AVBL
WAUSAU         LGT RAIN  33  33 100 E7        29.48S VSB 3/4
MOSINEE        FOG       34  34 100 E8        29.50S VSB 3/8
MARSHFIELD     LGT RAIN  34  33  96 E14       29.45F VSB 1/4
WISC RAPIDS    FOG       35  35 100 E10       29.48S VSB 1/4
STEVENS POINT  NOT AVBL
WAUPACA        NOT AVBL
SHAWANO        NOT AVBL
CLINTONVILLE   FOG       34  34 100 E7        29.53F VSB 3/4
WAUTOMA        FOG       35  35 100 NE7       29.50F VSB 1/4
$$

WIZ038-039-048-051-211600-
FOX VALLEY

CITY           SKY/WX    TMP DP  RH WIND       PRES   REMARKS
NWS GREEN BAY  FOG       36  36 100 NE8       29.54F VSB 1/4
APPLETON       FOG       36  36 100 E6        29.51F VSB 1/8
OSHKOSH        FOG       35  35 100 E3        29.50F VSB<1/4
FOND DU LAC    CLOUDY    39  36  89 SE8       29.50S FOG
$$

WIZ022-050-052-211600-
EAST CENTRAL WISCONSIN

CITY           SKY/WX    TMP DP  RH WIND       PRES   REMARKS
EPHRAIM        NOT AVBL
WASHINGTON ISL NOT AVBL
STURGEON BAY   FOG       36  36 100 E8        29.56F VSB 1/2
MANITOWOC      NOT AVBL
SHEBOYGAN      FOG       36  36 100 NE5       29.52F VSB<1/4
$$

LMZ563-521-522-541>543-211600-
LAKESHORE

STATION/POSITION TIME  TEMP    WIND        PRES    VSBY  WAVE
                       AIR SEA DIR/SP/G                  HT/PER
                 (UTC) (F)     (DEG/KT/KT) (MB)    (MI)  (FT/S)
SHEBOYGAN LKSHOR 1400   39     140/  5/  6 1000.5F
KEWAUNEE LKSHORE 1430   36      50/  2/  5 1000.9F
NORTHPORT PIER   1440   34     120/  3/  5 1002.4S
SISTER BAY LKSHO 1405   36     140/  5/  8   N/A
$$




USA.gov is the U.S. government's official web portal to all federal, state and local government web resources and services.